Wind_Speed
13 14 14 14 15 16 17 18 18 18 17 16 16 15 14 13 12 12 12 11 11 11 10 11 12 11 10 9 8 7 5 4 4 4 5 6 7 8 10 12 13 14 15 15
12 13 14 14 14 16 18 19 19 18 18 18 17 17 16 15 13 13 13 13 12 12 12 12 13 12 11 10 9 7 6 5 4 5 5 6 6 8 9 11 12 13 14 15
12 13 14 15 15 16 17 19 20 19 18 18 18 17 18 17 15 14 14 14 13 13 14 14 14 13 12 11 9 8 7 6 5 5 5 5 6 7 9 10 11 13 14 14
13 14 14 15 16 16 17 18 19 19 19 18 18 18 18 18 17 15 15 14 14 14 14 15 14 14 13 12 11 9 8 7 5 5 5 5 5 6 7 9 10 12 13 14
12 13 14 15 15 15 16 17 18 19 19 18 18 18 17 18 17 16 16 15 15 15 16 16 15 15 14 13 12 10 9 7 6 5 5 4 5 6 7 8 9 10 12 13
11 13 14 14 15 15 16 16 17 17 18 18 16 17 16 15 15 16 16 16 16 16 17 17 16 16 15 14 12 11 9 7 6 5 5 4 4 5 6 7 8 9 10 11
11 12 13 13 14 15 15 17 17 17 18 17 16 16 14 14 13 15 16 16 16 17 18 17 17 16 16 15 13 11 10 8 7 6 5 4 4 4 5 6 7 8 9 10
10 11 12 13 14 14 14 16 16 16 16 16 17 16 14 15 15 15 16 17 18 18 19 18 17 17 17 16 14 12 11 9 8 7 5 4 4 3 4 5 6 7 8 9
10 11 12 13 13 14 14 15 16 16 15 16 16 15 15 15 15 15 16 16 17 18 19 18 18 17 18 17 15 13 12 10 9 7 6 5 4 3 3 4 5 6 7 8
10 11 11 12 13 14 15 15 16 17 16 16 15 14 15 16 15 15 17 17 17 18 18 18 18 18 18 17 16 14 13 12 10 9 7 6 5 4 3 2 3 5 6 7
11 11 11 12 12 13 15 16 17 17 16 15 14 13 14 15 16 16 17 18 17 18 18 19 19 18 18 18 16 15 14 13 11 10 9 7 6 5 4 2 2 3 4 5
11 11 11 11 12 14 15 16 17 17 17 16 15 13 14 15 17 18 18 19 19 18 19 19 19 19 18 18 17 16 15 13 12 11 10 9 7 5 4 3 2 1 2 3
11 11 11 12 13 14 16 16 17 17 17 17 16 13 15 16 17 18 19 20 20 19 20 20 20 20 18 19 18 17 16 14 13 12 11 10 8 7 6 4 3 1 0 2
12 12 11 11 12 13 14 16 17 17 17 17 15 14 15 16 17 17 18 20 20 20 20 20 19 19 19 19 18 18 17 15 14 13 12 11 10 9 8 6 5 3 2 2
12 13 13 13 13 14 15 14 16 17 17 16 15 15 16 16 17 17 18 19 20 20 20 20 20 19 19 19 19 18 17 16 15 15 14 12 11 10 9 8 7 5 5 4
13 13 13 13 13 14 14 15 15 16 16 15 15 14 16 18 17 17 18 18 19 20 20 20 20 20 19 19 19 18 18 17 16 16 15 14 13 12 11 10 9 8 7 6
14 13 13 13 14 15 14 13 14 14 16 14 14 14 17 18 17 18 17 18 19 20 20 20 20 20 20 20 19 19 19 18 17 16 16 15 14 13 12 11 11 10 9 9
15 14 14 13 14 14 12 14 13 13 15 15 15 16 17 17 19 19 19 18 18 19 20 20 20 19 20 20 20 20 20 19 18 17 16 16 15 14 13 13 12 12 11 11
16 15 15 15 15 14 13 13 13 13 14 15 16 17 18 19 19 20 19 19 19 18 19 19 19 19 20 19 19 20 20 19 19 17 17 16 16 15 15 14 14 13 13 13
18 16 16 15 15 13 11 12 13 13 13 14 15 16 18 19 18 17 18 19 18 19 19 19 19 19 19 19 19 20 20 20 18 18 18 17 17 16 16 15 15 15 15 15
19 17 17 16 15 12 11 12 13 13 12 13 14 15 16 17 17 18 19 18 18 19 19 20 20 19 19 19 20 20 20 20 19 19 19 18 18 17 17 16 16 17 17 17
20 19 18 17 15 12 13 14 13 11 12 13 13 14 15 15 17 18 18 18 19 20 20 20 20 20 20 20 20 20 20 21 21 20 20 19 19 19 18 18 18 18 18 18
22 21 19 18 16 14 13 13 11 11 12 12 13 13 15 15 16 17 18 18 19 20 20 20 21 21 21 21 20 20 21 21 22 21 21 21 21 20 20 20 20 20 20 20
22 22 21 20 18 17 16 14 13 12 12 12 13 14 14 15 16 17 17 18 19 20 20 21 21 22 22 21 21 21 21 21 22 22 22 22 22 22 22 22 22 22 22 22
22 22 22 21 19 18 16 15 14 14 14 13 13 14 15 14 15 16 17 18 19 20 20 20 21 21 21 22 22 22 22 22 23 23 23 23 24 24 24 24 24 24 24 24
24 23 23 23 21 19 18 18 17 17 16 15 15 15 15 15 15 16 17 18 19 20 21 21 21 21 22 23 23 23 24 24 24 24 24 24 24 24 24 25 25 25 25 26
Wind_Direction
245 243 241 238 236 233 232 231 231 230 230 228 228 229 229 222 213 210 215 214 207 204 206 203 193 191 184 178 177 172 162 141 119 106 90 74 59 52 48 47 46 43 43 43
243 240 239 237 236 234 234 234 232 233 231 230 229 229 227 223 217 215 212 211 205 203 205 200 194 192 188 181 179 175 169 152 129 112 96 83 68 58 53 51 47 45 44 45
242 239 239 238 235 234 235 233 233 234 232 231 233 234 231 226 219 217 212 209 207 203 201 200 198 194 190 185 182 179 172 159 140 120 102 90 76 63 56 53 50 47 47 48
241 239 237 236 237 236 234 230 231 232 232 228 229 232 228 226 220 217 208 206 205 203 202 201 199 194 191 187 184 182 176 165 148 130 112 93 80 70 61 56 52 49 49 50
238 239 238 235 235 234 233 231 230 232 230 229 229 229 226 225 222 217 208 205 205 202 200 199 198 194 190 186 185 182 178 171 157 141 125 103 87 77 67 59 54 52 51 50
237 238 236 234 233 232 229 230 229 230 232 233 232 230 224 222 221 218 213 206 204 200 198 197 197 194 192 189 187 185 184 177 168 156 141 121 97 85 75 62 56 54 52 51
238 237 235 233 232 233 229 227 228 228 230 231 232 231 222 220 219 218 214 208 204 198 197 195 196 195 193 189 189 188 189 186 179 170 158 143 117 99 85 69 59 54 51 50
240 235 234 231 229 231 229 225 229 229 230 229 228 227 217 218 219 219 212 206 202 197 196 197 197 197 194 191 191 193 194 193 188 181 171 161 146 122 100 80 65 56 50 48
238 234 233 231 229 226 223 222 223 227 229 228 228 224 218 216 215 214 208 202 200 198 198 199 200 199 196 194 196 197 197 197 194 189 181 175 169 153 121 88 68 57 50 47
239 234 231 229 226 222 220 220 220 222 224 226 226 223 217 211 210 207 203 200 198 198 200 200 200 200 198 199 200 201 200 200 199 195 191 185 181 175 155 110 79 60 50 47
235 233 228 226 222 218 218 219 221 222 223 223 222 219 212 205 204 201 199 200 200 199 200 201 201 200 200 201 203 203 204 203 202 201 200 197 194 192 186 158 108 65 51 47
234 234 226 223 219 218 216 216 218 220 223 225 223 218 213 204 202 201 200 200 201 200 202 203 203 201 201 203 206 207 206 206 206 207 207 204 203 203 199 191 175 87 45 37
233 231 226 223 222 218 215 215 217 220 224 227 227 223 214 207 203 200 200 198 200 202 206 205 203 203 204 206 208 208 208 209 208 208 210 210 209 211 211 209 210 215 336 4
230 226 226 224 225 225 221 220 221 224 227 229 228 222 212 213 211 204 201 198 199 202 204 205 204 204 207 207 208 210 211 211 211 212 214 215 216 217 218 218 222 230 251 295
231 224 222 224 228 224 225 224 225 227 226 230 227 225 219 220 212 203 203 200 197 199 202 204 205 207 208 209 210 212 213 215 214 215 217 218 220 223 225 227 229 239 254 269
229 226 224 226 230 232 229 228 230 228 228 229 227 222 218 221 212 206 206 207 202 200 202 205 207 209 211 211 211 214 216 217 217 219 221 222 224 226 229 232 234 242 252 263
230 229 230 229 230 232 231 231 232 228 226 223 222 220 218 220 218 213 208 208 208 206 206 207 208 211 213 213 215 215 217 219 219 221 223 225 227 230 233 235 238 244 250 259
228 230 231 229 228 232 226 228 229 230 223 220 217 217 220 219 217 212 209 207 206 207 210 211 211 212 213 214 216 217 218 220 221 223 225 228 230 233 237 240 243 247 252 258
227 230 233 233 236 236 230 231 233 232 226 223 221 220 221 220 217 212 209 210 208 207 209 211 213 214 214 216 217 218 221 223 224 225 227 229 233 237 240 243 246 249 254 260
224 226 229 231 236 235 223 226 229 231 228 225 223 222 221 222 218 213 210 210 210 207 208 212 214 214 214 216 218 219 223 224 226 228 229 231 235 239 242 244 247 250 255 261
222 224 226 231 236 226 214 216 221 225 224 221 220 218 215 214 214 214 212 211 211 211 212 215 216 216 217 219 221 223 224 224 228 230 231 233 237 241 243 245 249 253 257 262
223 224 228 231 233 221 218 219 219 219 215 216 218 219 217 217 215 217 217 215 214 216 215 216 218 219 221 222 224 225 225 227 230 233 235 237 241 243 245 247 251 256 260 264
224 226 229 232 230 225 219 218 216 217 218 219 224 225 224 223 218 217 219 219 218 220 219 220 221 222 224 227 228 228 229 230 233 236 239 241 244 245 247 250 253 257 262 266
224 224 227 228 226 225 223 223 222 226 226 227 228 227 227 225 221 218 220 221 221 222 223 223 225 226 228 229 229 231 233 234 235 238 241 243 245 247 249 253 257 259 263 266
225 226 225 226 228 230 230 229 230 230 231 234 234 232 231 230 225 223 224 225 226 225 225 225 225 227 228 230 231 233 235 236 238 240 242 244 248 251 253 254 258 261 264 268
227 227 226 228 232 236 235 233 232 233 237 240 239 235 234 235 232 230 229 228 229 229 228 228 228 229 231 232 234 236 238 239 241 243 245 247 250 253 256 258 262 263 266 269
Height
5839 5841 5842 5844 5846 5847 5849 5851 5853 5855 5857 5859 5861 5863 5865 5867 5868 5870 5872 5873 5876 5877 5880 5882 5883 5885 5886 5888 5889 5890 5891 5891 5891 5890 5890 5889 5888 5887 5886 5884 5881 5879 5876 5874
5837 5838 5840 5841 5842 5844 5846 5848 5849 5851 5853 5856 5858 5859 5861 5864 5866 5868 5870 5871 5874 5876 5878 5880 5882 5884 5885 5887 5889 5890 5891 5891 5891 5891 5890 5890 5889 5888 5887 5885 5883 5881 5878 5876
5834 5836 5836 5837 5839 5840 5842 5844 5846 5848 5850 5852 5855 5857 5858 5860 5863 5865 5867 5869 5872 5874 5876 5879 5881 5883 5885 5886 5888 5889 5890 5891 5891 5891 5891 5891 5890 5889 5888 5886 5884 5882 5880 5878
5831 5832 5833 5834 5836 5837 5839 5841 5843 5845 5847 5849 5852 5854 5856 5857 5860 5862 5865 5867 5870 5872 5874 5877 5880 5882 5884 5886 5887 5889 5890 5891 5891 5891 5891 5891 5891 5890 5889 5888 5886 5884 5882 5880
5828 5829 5830 5831 5833 5834 5836 5838 5840 5842 5844 5846 5848 5851 5854 5855 5857 5860 5863 5865 5867 5870 5872 5875 5878 5880 5882 5885 5887 5888 5890 5891 5891 5892 5892 5892 5891 5891 5890 5889 5887 5886 5884 5882
5825 5826 5827 5829 5830 5831 5834 5836 5837 5838 5841 5844 5846 5847 5851 5853 5855 5857 5860 5862 5865 5868 5870 5873 5876 5879 5881 5884 5886 5888 5889 5890 5891 5892 5892 5892 5892 5891 5891 5890 5889 5887 5886 5884
5822 5823 5824 5826 5827 5829 5831 5833 5835 5835 5837 5841 5843 5844 5849 5851 5852 5854 5857 5860 5863 5865 5868 5871 5875 5877 5880 5882 5885 5887 5889 5890 5891 5891 5892 5892 5892 5892 5891 5891 5890 5889 5887 5886
5820 5821 5822 5823 5824 5826 5827 5830 5833 5834 5835 5838 5839 5841 5847 5848 5850 5851 5854 5857 5860 5863 5866 5870 5873 5875 5878 5881 5883 5886 5888 5889 5890 5891 5892 5892 5892 5892 5892 5891 5891 5890 5888 5887
5817 5818 5819 5820 5821 5823 5824 5826 5829 5831 5832 5834 5836 5839 5843 5844 5846 5849 5852 5855 5858 5861 5864 5868 5871 5874 5876 5879 5882 5884 5886 5888 5890 5891 5891 5892 5892 5892 5892 5892 5891 5890 5889 5888
5814 5815 5816 5817 5818 5820 5822 5824 5826 5828 5829 5831 5834 5836 5840 5841 5843 5846 5849 5853 5856 5859 5862 5865 5868 5871 5874 5877 5880 5883 5885 5887 5888 5890 5891 5891 5892 5892 5893 5892 5892 5891 5890 5889
5811 5813 5814 5815 5816 5817 5819 5821 5822 5825 5827 5829 5831 5836 5837 5838 5841 5844 5847 5850 5853 5856 5859 5863 5866 5869 5872 5875 5878 5881 5883 5885 5887 5889 5890 5891 5891 5892 5892 5892 5892 5891 5891 5890
5808 5810 5811 5812 5813 5814 5816 5818 5820 5822 5824 5826 5828 5835 5834 5836 5838 5841 5844 5847 5850 5853 5857 5860 5863 5866 5870 5873 5876 5879 5881 5883 5885 5887 5888 5890 5890 5891 5892 5892 5892 5892 5891 5891
5806 5807 5809 5810 5812 5812 5813 5815 5817 5819 5821 5822 5825 5831 5831 5833 5835 5838 5841 5844 5847 5851 5854 5857 5860 5864 5867 5870 5873 5876 5879 5881 5883 5885 5887 5888 5889 5890 5891 5891 5891 5891 5891 5890
5803 5804 5807 5808 5808 5809 5811 5812 5814 5815 5817 5819 5822 5826 5828 5830 5832 5835 5838 5841 5844 5848 5851 5854 5858 5861 5864 5867 5871 5874 5876 5879 5881 5883 5885 5886 5887 5888 5889 5890 5890 5890 5890 5890
5800 5801 5803 5804 5805 5806 5808 5809 5811 5812 5815 5817 5819 5821 5824 5827 5829 5833 5835 5838 5841 5845 5849 5852 5856 5859 5862 5865 5868 5871 5874 5876 5878 5880 5882 5884 5885 5886 5887 5888 5888 5889 5889 5889
5797 5798 5800 5801 5802 5803 5805 5806 5808 5810 5811 5813 5816 5818 5821 5823 5826 5829 5833 5836 5839 5842 5846 5850 5853 5856 5859 5862 5865 5868 5871 5874 5876 5878 5880 5881 5883 5884 5885 5886 5886 5887 5887 5887
5794 5796 5797 5798 5799 5800 5802 5804 5806 5807 5808 5810 5813 5816 5817 5820 5823 5827 5830 5834 5837 5840 5843 5846 5850 5853 5856 5859 5862 5865 5868 5870 5873 5875 5877 5878 5880 5881 5882 5883 5884 5884 5885 5885
5791 5792 5794 5795 5797 5797 5802 5801 5802 5803 5805 5807 5810 5812 5814 5818 5820 5824 5827 5831 5834 5837 5840 5843 5846 5850 5853 5856 5859 5862 5864 5867 5869 5872 5874 5875 5877 5878 5879 5880 5881 5881 5882 5882
5788 5790 5790 5792 5793 5794 5798 5798 5799 5800 5802 5804 5806 5809 5812 5814 5817 5820 5824 5827 5830 5834 5837 5840 5843 5846 5849 5852 5855 5858 5861 5863 5866 5868 5870 5871 5873 5874 5875 5876 5877 5878 5878 5879
5784 5786 5787 5788 5789 5791 5796 5796 5796 5798 5799 5802 5803 5805 5808 5811 5814 5818 5821 5824 5826 5830 5833 5836 5839 5842 5846 5849 5851 5854 5857 5859 5862 5864 5865 5867 5869 5870 5871 5872 5873 5874 5874 5875
5780 5782 5784 5785 5786 5788 5792 5792 5793 5796 5798 5799 5801 5803 5805 5808 5812 5815 5817 5820 5823 5826 5829 5832 5835 5839 5842 5845 5847 5850 5853 5855 5857 5859 5861 5863 5864 5866 5867 5868 5869 5869 5870 5870
5776 5778 5780 5781 5783 5788 5788 5789 5791 5793 5795 5796 5799 5800 5803 5805 5807 5810 5813 5816 5819 5822 5825 5828 5832 5835 5837 5840 5843 5846 5848 5850 5852 5854 5856 5858 5859 5861 5862 5863 5864 5864 5865 5865
5772 5775 5777 5779 5783 5784 5785 5786 5788 5790 5792 5794 5796 5798 5800 5802 5804 5807 5810 5813 5816 5819 5821 5825 5828 5830 5833 5836 5838 5841 5843 5845 5847 5849 5851 5853 5854 5855 5856 5857 5858 5859 5859 5859
5767 5769 5772 5774 5777 5779 5781 5783 5785 5787 5788 5791 5792 5794 5797 5799 5801 5804 5806 5809 5812 5815 5817 5820 5823 5826 5828 5831 5833 5835 5837 5839 5841 5843 5845 5847 5848 5850 5851 5851 5852 5853 5853 5853
5762 5764 5767 5769 5773 5775 5778 5780 5782 5784 5785 5787 5789 5791 5793 5795 5798 5800 5802 5805 5807 5810 5813 5816 5818 5821 5823 5825 5828 5830 5832 5834 5836 5838 5840 5841 5843 5844 5845 5845 5846 5846 5846 5846
5757 5760 5762 5765 5768 5771 5774 5776 5778 5780 5781 5784 5786 5787 5789 5791 5794 5796 5798 5800 5803 5805 5808 5810 5813 5815 5818 5820 5822 5825 5826 5828 5830 5832 5834 5835 5836 5837 5838 5839 5839 5839 5839 5839